Location: Jefferson Observatory
(34.1602°N, 83.6058°W)
Time: 18:51:24
(UTC-05:00)

ISS - Visible Passes

Search period start: 23 November 2017 00:00
Search period end: 03 December 2017 00:00
Orbit: 402 x 407 km, 51.6° (Epoch: 24 November)

Date Brightness Start Highest point End Pass type
(mag) Time Alt. Az. Time Alt. Az. Time Alt. Az.
23 Nov -1.0 19:31:45 10° SSW 19:32:20 14° SSW 19:32:20 14° SSW visible
24 Nov -2.3 18:40:09 10° S 18:42:40 22° SE 18:42:40 22° SE visible
25 Nov -2.2 19:23:28 10° WSW 19:25:37 35° W 19:25:37 35° W visible
26 Nov -3.8 18:31:08 10° SW 18:34:22 64° SE 18:35:47 30° ENE visible
27 Nov -1.8 19:15:54 10° W 19:18:31 23° NW 19:18:31 23° NW visible
28 Nov -2.9 18:22:58 10° WSW 18:26:07 43° NW 18:28:29 16° NNE visible
29 Nov -1.1 19:09:15 10° NW 19:10:35 12° NNW 19:11:02 12° NNW visible
30 Nov -1.6 18:15:32 10° W 18:17:59 19° NNW 18:20:25 10° NNE visible
02 Dec -1.0 18:09:24 10° NW 18:09:57 10° NNW 18:10:30 10° NNW visible
